Tracking 35237 objects as of 4-Sep-2026
HD Live streaming from Space Station
objects crossing your sky now

GONETS M 20

Track GONETS M 20 now!
10-day predictions


NORAD ID: 47227
Int'l Code: 2020-091A
Launch date: December 3, 2020
Source: Commonwealth of Independent States (former USSR) (CIS)
Launch site: PLESETSK MISSILE AND SPACE COMPLEX (PKMTR)
Your satellite tracking list
Your tracking list is empty




NASA's NSSDC Master Catalog

Two Line Element Set (TLE):
1 47227U 20091A   26247.69764995 -.00000001  00000-0 -77716-4 0  9995
2 47227  82.4990 253.0044 0021106  11.0291 349.1247 12.42895774260959
Source of the keplerian elements: AFSPC